CW2978 Weather Reports


Display with metric or nautical units.
time (UTC)temp
F
wind
direction
speed
MPH
gust
MPH
rain 1hr
in
rain 24hr
in
rain mn
in
humidity
%
barometer
mb
20210727024533 69 272 1.0 4.0 0.00 0.04 0.04 87 1013.1
20210727024015 69 192 1.0 4.0 0.00 0.04 0.04 86 1013.1
20210727023458 69 198 1.0 4.0 0.00 0.04 0.04 86 1013.0
20210727022944 69 259 1.0 5.0 0.00 0.04 0.04 86 1013.0
20210727022425 69 209 1.0 5.0 0.00 0.04 0.04 86 1013.0
20210727021906 69 208 1.0 6.0 0.00 0.04 0.04 86 1012.9
20210727021351 69 232 1.0 6.0 0.00 0.04 0.04 86 1012.9
20210727020833 69 218 1.0 3.0 0.00 0.04 0.04 86 1013.0
20210727020313 69 283 1.0 5.0 0.00 0.04 0.04 85 1012.9
20210727015756 70 267 2.0 3.0 0.00 0.04 0.04 85 1012.8
20210727015239 70 211 1.0 7.0 0.00 0.04 0.04 85 1012.8
20210727014726 70 231 2.0 5.0 0.00 0.04 0.04 85 1012.8
20210727014205 70 233 2.0 7.0 0.00 0.04 0.04 85 1012.7
20210727013648 70 250 2.0 7.0 0.00 0.04 0.04 85 1012.7
20210727013130 70 207 2.0 7.0 0.01 0.04 0.04 85 1012.7
20210727012612 70 203 2.0 7.0 0.01 0.04 0.04 85 1012.7
20210727012054 70 297 2.0 8.0 0.01 0.04 0.04 85 1012.6
20210727011537 70 253 3.0 8.0 0.01 0.04 0.04 85 1012.5
20210727011018 70 291 2.0 7.0 0.01 0.04 0.04 85 1012.6
20210727010500 70 334 2.0 7.0 0.01 0.04 0.04 85 1012.6
20210727005944 70 287 2.0 7.0 0.01 0.04 0.04 85 1012.7
20210727005426 70 315 2.0 7.0 0.01 0.04 0.04 85 1012.8
20210727004909 70 204 4.0 9.0 0.01 0.04 0.04 85 1012.8
20210727004351 70 280 4.0 9.0 0.01 0.04 0.04 85 1012.8
20210727003832 70 254 3.0 8.0 0.01 0.04 0.04 85 1012.9
20210727003317 71 223 3.0 8.0 0.01 0.04 0.04 84 1012.9
20210727002800 71 201 3.0 6.0 0.00 0.03 0.03 85 1013.0
20210727002241 71 188 2.0 7.0 0.00 0.03 0.03 84 1012.9
20210727001724 71 207 2.0 7.0 0.00 0.03 0.03 85 1012.9
20210727001206 71 232 2.0 6.0 0.00 0.03 0.03 85 1013.0
20210727000648 71 211 2.0 7.0 0.00 0.03 0.03 85 1013.0
20210727000131 71 227 2.0 7.0 0.00 0.03 0.03 85 1013.1
20210726235615 71 196 2.0 6.0 0.00 0.03 0.03 85 1013.0
20210726235058 70 233 3.0 7.0 0.00 0.03 0.03 85 1013.1
20210726234539 71 257 2.0 7.0 0.00 0.03 0.03 85 1013.1
20210726234021 71 300 2.0 6.0 0.00 0.03 0.03 85 1013.1
20210726233503 71 274 2.0 4.0 0.00 0.03 0.03 85 1013.1
20210726232945 71 240 3.0 7.0 0.00 0.03 0.03 85 1013.1
20210726232427 70 236 3.0 6.0 0.00 0.03 0.03 85 1013.1
20210726231905 71 196 3.0 7.0 0.00 0.03 0.03 84 1013.1
20210726231350 71 186 2.0 6.0 0.00 0.03 0.03 84 1013.2
20210726230833 71 193 3.0 8.0 0.00 0.03 0.03 84 1013.2
20210726230311 71 211 3.0 8.0 0.00 0.03 0.03 85 1013.2
20210726225752 71 246 3.0 7.0 0.00 0.03 0.03 84 1013.3
20210726225233 71 222 2.0 7.0 0.00 0.03 0.03 84 1013.3
20210726224719 71 189 2.0 6.0 0.00 0.03 0.03 83 1013.4
20210726224153 71 211 3.0 5.0 0.00 0.03 0.03 84 1013.3
20210726223633 71 205 3.0 6.0 0.00 0.03 0.03 83 1013.4
20210726223110 71 278 2.0 3.0 0.00 0.03 0.03 83 1013.4
20210726222544 71 266 2.0 6.0 0.00 0.03 0.03 83 1013.5
20210726222026 71 240 2.0 5.0 0.00 0.03 0.03 83 1013.5
20210726221509 71 182 2.0 6.0 0.00 0.03 0.03 83 1013.5
20210726220949 71 283 2.0 6.0 0.00 0.03 0.03 83 1013.5
20210726220431 72 266 2.0 5.0 0.00 0.03 0.03 83 1013.5
20210726215913 72 242 2.0 6.0 0.00 0.03 0.03 83 1013.5
20210726215357 71 208 2.0 6.0 0.00 0.03 0.03 83 1013.5
20210726214836 72 219 2.0 5.0 0.00 0.03 0.03 83 1013.5
20210726214319 71 225 2.0 7.0 0.00 0.03 0.03 84 1013.5
20210726213802 71 190 3.0 7.0 0.00 0.03 0.03 83 1013.5
20210726213244 72 236 2.0 7.0 0.00 0.03 0.03 83 1013.5
20210726212727 72 281 3.0 7.0 0.00 0.03 0.03 84 1013.5
20210726212210 71 213 3.0 7.0 0.00 0.03 0.03 83 1013.5
20210726211652 72 246 3.0 8.0 0.00 0.03 0.03 83 1013.5
20210726211135 72 202 3.0 8.0 0.00 0.03 0.03 82 1013.5
20210726210618 72 221 3.0 8.0 0.00 0.03 0.03 82 1013.5
20210726210101 73 184 3.0 8.0 0.00 0.03 0.03 80 1013.5
20210726205542 74 226 3.0 6.0 0.00 0.03 0.03 81 1013.5
20210726205025 73 242 3.0 7.0 0.00 0.03 0.03 82 1013.6
20210726204507 73 242 3.0 6.0 0.00 0.03 0.03 81 1013.5
20210726203949 73 190 3.0 7.0 0.00 0.03 0.03 80 1013.6
20210726203433 73 194 3.0 7.0 0.00 0.03 0.03 81 1013.5
20210726202916 73 229 3.0 5.0 0.00 0.03 0.03 81 1013.6
20210726202359 73 270 3.0 8.0 0.00 0.03 0.03 81 1013.7
20210726201841 73 208 4.0 7.0 0.00 0.03 0.03 81 1013.7
20210726201323 73 263 4.0 8.0 0.00 0.03 0.03 81 1013.8
20210726200806 73 202 4.0 8.0 0.00 0.03 0.03 81 1013.7
20210726200246 74 209 3.0 8.0 0.01 0.03 0.03 81 1013.8
20210726195729 74 242 3.0 8.0 0.01 0.03 0.03 80 1013.8
20210726195211 74 245 3.0 7.0 0.01 0.03 0.03 79 1013.8
20210726194656 74 215 3.0 7.0 0.01 0.03 0.03 79 1013.8
20210726194135 74 198 3.0 7.0 0.01 0.03 0.03 80 1013.8
20210726193618 74 277 3.0 7.0 0.01 0.03 0.03 80 1013.8
20210726193058 74 234 4.0 7.0 0.01 0.03 0.03 81 1013.8
20210726192539 73 223 3.0 7.0 0.01 0.03 0.03 82 1013.8
20210726192021 74 222 3.0 8.0 0.01 0.03 0.03 81 1013.8
20210726191501 73 230 3.0 8.0 0.01 0.03 0.03 83 1013.8
20210726190939 73 213 3.0 7.0 0.01 0.03 0.03 83 1013.8
20210726190422 72 276 3.0 6.0 0.00 0.02 0.02 84 1013.8
20210726185904 73 211 2.0 7.0 0.00 0.02 0.02 83 1013.8
20210726185343 73 240 2.0 7.0 0.00 0.02 0.02 85 1013.8
20210726184823 72 188 2.0 6.0 0.00 0.02 0.02 85 1013.8
20210726184302 72 198 3.0 4.0 0.00 0.02 0.02 86 1013.8
20210726183745 71 231 3.0 6.0 0.00 0.02 0.02 86 1013.7
20210726183226 71 232 2.0 5.0 0.00 0.02 0.02 87 1013.7
20210726182707 71 205 2.0 6.0 0.00 0.02 0.02 87 1013.7
20210726182149 72 253 2.0 4.0 0.00 0.02 0.02 88 1013.7
20210726181627 71 182 3.0 6.0 0.00 0.02 0.02 88 1013.7
20210726181108 70 200 3.0 5.0 0.00 0.02 0.02 89 1013.7
20210726180547 70 196 3.0 6.0 0.00 0.02 0.02 89 1013.7
20210726180031 70 202 2.0 5.0 0.00 0.02 0.02 89 1013.7
20210726175516 70 203 1.0 7.0 0.00 0.02 0.02 89 1013.7
20210726174954 70 208 2.0 7.0 0.00 0.02 0.02 90 1013.7
20210726174432 70 286 3.0 7.0 0.00 0.02 0.02 90 1013.6
20210726173914 70 243 2.0 7.0 0.00 0.02 0.02 90 1013.7
20210726173355 70 200 3.0 7.0 0.00 0.02 0.02 91 1013.7
20210726172836 70 262 3.0 7.0 0.00 0.02 0.02 92 1013.5
20210726172315 69 192 2.0 6.0 0.00 0.02 0.02 92 1013.6
20210726171752 69 214 2.0 6.0 0.00 0.02 0.02 92 1013.4
20210726171229 69 213 3.0 6.0 0.00 0.02 0.02 93 1013.4
20210726170707 68 209 3.0 7.0 0.00 0.02 0.02 92 1013.4
20210726170150 68 211 2.0 7.0 0.00 0.02 0.02 92 1013.3
20210726165628 69 297 2.0 5.0 0.00 0.02 0.02 93 1013.2
20210726165111 68 201 2.0 8.0 0.00 0.02 0.02 93 1013.1
20210726164554 68 221 2.0 5.0 0.00 0.02 0.02 93 1013.1
20210726164038 68 302 3.0 8.0 0.00 0.02 0.02 93 1013.1
20210726163520 68 197 3.0 8.0 0.00 0.02 0.02 93 1013.1
20210726163001 68 194 2.0 6.0 0.00 0.02 0.02 93 1013.1
20210726162442 69 212 1.0 6.0 0.00 0.02 0.02 93 1013.0
20210726161920 68 214 1.0 4.0 0.00 0.02 0.02 93 1013.0
20210726161401 68 213 1.0 4.0 0.00 0.02 0.02 94 1013.1
20210726160842 68 213 0.0 2.0 0.00 0.02 0.02 94 1012.9
20210726160323 68 284 0.0 0.0 0.00 0.02 0.02 94 1012.9
20210726155800 68 284 0.0 0.0 0.00 0.02 0.02 94 1012.7
20210726155237 68 284 0.0 1.0 0.00 0.02 0.02 94 1012.7
20210726154715 68 284 0.0 1.0 0.00 0.02 0.02 94 1012.8
20210726154155 68 284 0.0 3.0 0.00 0.02 0.02 94 1012.8
20210726153633 67 284 1.0 3.0 0.00 0.02 0.02 94 1012.8
20210726153112 67 284 1.0 3.0 0.00 0.02 0.02 94 1012.9
20210726152550 67 290 1.0 3.0 0.00 0.02 0.02 93 1012.8
20210726152031 67 260 1.0 4.0 0.00 0.02 0.02 93 1012.8
20210726151512 67 264 1.0 4.0 0.00 0.02 0.02 93 1012.7
20210726150952 67 317 1.0 3.0 0.00 0.02 0.02 93 1012.7
20210726150431 67 313 0.0 2.0 0.00 0.02 0.02 93 1012.7
20210726145915 67 313 0.0 2.0 0.00 0.02 0.02 93 1012.7
20210726145356 67 326 0.0 0.0 0.00 0.02 0.02 93 1012.6
20210726144842 67 326 0.0 4.0 0.00 0.02 0.02 93 1012.5
20210726144323 67 326 0.0 4.0 0.00 0.02 0.02 93 1012.5
20210726143805 67 61 0.0 0.0 0.00 0.02 0.02 93 1012.6
20210726143246 67 69 0.0 0.0 0.00 0.02 0.02 93 1012.6
20210726142729 67 81 0.0 0.0 0.00 0.02 0.02 92 1012.6
20210726142210 67 81 0.0 0.0 0.00 0.02 0.02 92 1012.7
20210726141653 67 81 0.0 0.0 0.00 0.02 0.02 92 1012.7
20210726141134 67 81 0.0 0.0 0.00 0.02 0.02 92 1012.7
20210726140616 67 81 0.0 0.0 0.00 0.02 0.02 92 1012.6
20210726140103 67 81 0.0 0.0 0.01 0.02 0.02 92 1012.6
20210726135538 67 81 0.0 0.0 0.01 0.02 0.02 92 1012.7
20210726135022 67 81 0.0 0.0 0.01 0.02 0.02 92 1012.7
20210726134503 67 81 0.0 0.0 0.01 0.02 0.02 92 1012.7
20210726133945 67 81 0.0 0.0 0.01 0.02 0.02 92 1012.6
20210726133428 67 81 0.0 0.0 0.01 0.02 0.02 92 1012.6
20210726132911 67 81 0.0 0.0 0.01 0.02 0.02 92 1012.6
20210726132354 67 81 0.0 0.0 0.01 0.02 0.02 92 1012.6
20210726131838 67 81 0.0 0.0 0.01 0.02 0.02 92 1012.6
20210726131321 67 81 0.0 0.0 0.01 0.02 0.02 92 1012.6
20210726130803 67 81 0.0 0.0 0.01 0.02 0.02 92 1012.6
20210726130247 67 199 0.0 0.0 0.00 0.01 0.01 92 1012.6
20210726125728 67 199 0.0 0.0 0.00 0.01 0.01 92 1012.6
20210726125211 67 199 0.0 0.0 0.00 0.01 0.01 92 1012.6
20210726124654 67 199 0.0 0.0 0.00 0.01 0.01 92 1012.6
20210726124138 67 199 0.0 0.0 0.00 0.01 0.01 92 1012.7
20210726123619 67 199 0.0 0.0 0.00 0.01 0.01 92 1012.8
20210726123103 67 199 0.0 0.0 0.00 0.01 0.01 92 1012.8
20210726122545 67 199 0.0 0.0 0.00 0.01 0.01 92 1012.9
20210726122029 67 209 0.0 0.0 0.00 0.01 0.01 92 1013.0
20210726121511 67 209 0.0 0.0 0.00 0.01 0.01 92 1012.9
20210726120951 66 209 0.0 0.0 0.00 0.01 0.01 92 1012.8
20210726120435 66 209 0.0 0.0 0.00 0.01 0.01 92 1012.7
20210726115917 66 209 0.0 0.0 0.00 0.01 0.01 92 1012.7
20210726115359 66 210 0.0 1.0 0.00 0.01 0.01 92 1012.7
20210726114840 67 210 0.0 3.0 0.00 0.01 0.01 92 1012.7
20210726114322 67 210 1.0 3.0 0.00 0.01 0.01 92 1012.5
20210726113805 67 210 0.0 2.0 0.00 0.01 0.01 92 1012.4
20210726113249 67 210 0.0 3.0 0.00 0.01 0.01 92 1012.4
20210726112732 67 210 0.0 2.0 0.00 0.01 0.01 92 1012.3
20210726112214 67 210 0.0 3.0 0.00 0.01 0.01 92 1012.3
20210726111656 67 210 1.0 2.0 0.00 0.01 0.01 92 1012.3
20210726111137 67 210 1.0 4.0 0.00 0.01 0.01 92 1012.4
20210726110619 67 210 1.0 4.0 0.00 0.01 0.01 92 1012.4
20210726110102 67 351 0.0 2.0 0.00 0.01 0.01 92 1012.5
20210726105543 67 351 0.0 0.0 0.00 0.01 0.01 92 1012.6
20210726105026 67 351 0.0 2.0 0.00 0.01 0.01 92 1012.7
20210726104509 67 351 0.0 2.0 0.00 0.01 0.01 92 1012.9
20210726103952 67 351 1.0 4.0 0.00 0.01 0.01 92 1013.1
20210726103436 67 351 2.0 4.0 0.00 0.01 0.01 92 1013.1
20210726102918 67 351 2.0 4.0 0.00 0.01 0.01 92 1013.2
20210726102402 67 351 2.0 4.0 0.00 0.01 0.01 92 1013.2
20210726101843 67 349 2.0 4.0 0.00 0.01 0.01 92 1013.2
20210726101315 67 347 1.0 4.0 0.00 0.01 0.01 92 1013.1
20210726100758 67 5 1.0 2.0 0.00 0.01 0.01 92 1013.1
20210726100240 66 5 1.0 5.0 0.00 0.01 0.01 92 1013.1
20210726095720 66 355 0.0 5.0 0.00 0.01 0.01 92 1013.1
20210726095204 66 355 0.0 0.0 0.00 0.01 0.01 92 1012.9
20210726094647 66 0 0.0 0.0 0.00 0.01 0.01 92 1012.9
20210726094131 66 0 0.0 0.0 0.00 0.01 0.01 92 1012.7
20210726093613 66 0 0.0 0.0 0.00 0.01 0.01 92 1012.7
20210726093057 66 0 0.0 0.0 0.00 0.01 0.01 92 1012.7
20210726092539 66 0 0.0 0.0 0.00 0.01 0.01 92 1012.8
20210726092023 66 0 0.0 0.0 0.00 0.01 0.01 92 1012.8
20210726091505 66 0 0.0 0.0 0.00 0.01 0.01 92 1012.7
20210726090947 66 0 0.0 0.0 0.00 0.01 0.01 92 1012.6
20210726090430 66 0 0.0 0.0 0.00 0.01 0.01 92 1012.7
20210726085913 66 0 0.0 0.0 0.00 0.01 0.01 92 1012.8
20210726085355 66 232 0.0 0.0 0.00 0.01 0.01 92 1012.6
20210726084838 66 232 0.0 0.0 0.00 0.01 0.01 92 1012.6
20210726084320 66 232 0.0 0.0 0.01 0.01 0.01 92 1012.7
20210726083801 66 232 0.0 0.0 0.01 0.01 0.01 92 1012.6
20210726083244 66 232 0.0 0.0 0.01 0.01 0.01 92 1012.6
20210726082726 66 232 0.0 0.0 0.01 0.01 0.01 92 1012.7
20210726082209 66 251 0.0 0.0 0.01 0.01 0.01 92 1012.7
20210726081651 66 251 0.0 0.0 0.01 0.01 0.01 92 1012.7
20210726081134 66 251 0.0 0.0 0.01 0.01 0.01 92 1012.7
20210726080617 66 251 0.0 0.0 0.01 0.01 0.01 92 1012.7
20210726080059 67 251 0.0 0.0 0.01 0.01 0.01 92 1012.8
20210726075540 67 251 0.0 0.0 0.01 0.01 0.01 92 1012.8
20210726075022 67 251 0.0 0.0 0.01 0.01 0.01 92 1012.8
20210726074504 67 251 0.0 0.0 0.01 0.01 0.01 92 1012.8
20210726073947 67 231 0.0 0.0 0.00 0.00 0.00 92 1012.8
20210726073428 67 231 0.0 0.0 0.00 0.00 0.00 92 1012.9
20210726072910 67 230 0.0 1.0 0.00 0.00 0.00 92 1012.9
20210726072353 67 230 0.0 1.0 0.00 0.00 0.00 92 1013.0
20210726071837 67 230 0.0 1.0 0.00 0.00 0.00 92 1013.0
20210726071317 67 230 0.0 4.0 0.00 0.00 0.00 92 1012.9
20210726070757 67 230 0.0 3.0 0.00 0.00 0.00 92 1012.9
20210726070238 67 230 0.0 3.0 0.00 0.00 0.00 92 1013.0
20210726065721 67 288 0.0 0.0 0.00 0.00 0.00 92 1013.1
20210726065202 67 288 0.0 0.0 0.00 0.00 0.00 92 1013.2
20210726064645 67 288 0.0 0.0 0.00 0.00 0.00 92 1013.2
20210726064127 67 288 0.0 0.0 0.00 0.00 0.00 92 1013.2
20210726063611 67 288 0.0 0.0 0.00 0.00 0.00 92 1013.3
20210726063053 67 288 0.0 0.0 0.00 0.00 0.00 92 1013.1
20210726062537 67 288 0.0 0.0 0.00 0.00 0.00 92 1013.2
20210726062021 67 288 0.0 0.0 0.00 0.00 0.00 92 1013.1
20210726061500 67 288 0.0 2.0 0.00 0.00 0.00 91 1013.1
20210726060942 67 288 0.0 1.0 0.00 0.00 0.00 91 1013.2
20210726060426 67 288 0.0 4.0 0.00 0.00 0.00 91 1013.4
20210726055905 67 305 0.0 2.0 0.00 0.00 0.00 91 1013.2
20210726055350 67 305 1.0 4.0 0.00 0.00 0.00 91 1013.3
20210726054832 67 341 1.0 4.0 0.00 0.00 0.00 91 1013.4
20210726054315 67 250 0.0 3.0 0.00 0.00 0.00 91 1013.2
20210726053759 67 244 0.0 3.0 0.00 0.00 0.00 91 1013.2
20210726053240 67 269 1.0 5.0 0.00 0.00 0.00 90 1013.3
20210726052725 67 280 1.0 5.0 0.00 0.00 0.00 90 1013.3
20210726052205 68 289 0.0 4.0 0.00 0.00 0.00 90 1013.5
20210726051648 68 286 0.0 4.0 0.00 0.00 0.00 89 1013.2
20210726051127 68 264 0.0 0.0 0.00 0.00 0.00 89 1013.4
20210726050609 68 229 0.0 0.0 0.00 0.00 0.00 89 1012.9
20210726050050 68 229 0.0 0.0 0.00 0.00 0.00 88 1013.0
20210726045538 68 229 0.0 0.0 0.00 0.00 0.00 88 1013.1
20210726045015 68 229 0.0 0.0 0.00 0.00 0.00 88 1013.2
20210726044456 68 229 0.0 0.0 0.00 0.00 0.00 87 1013.4
20210726043942 68 229 0.0 0.0 0.00 0.00 0.00 87 1013.5
20210726043423 68 229 0.0 0.0 0.00 0.00 0.00 87 1013.4
20210726042904 68 229 0.0 0.0 0.00 0.00 0.00 86 1013.1
20210726042347 68 229 0.0 2.0 0.00 0.00 0.00 86 1013.0
20210726041830 68 229 0.0 2.0 0.00 0.00 0.00 86 1013.1
20210726041313 68 230 0.0 4.0 0.00 0.00 0.00 86 1012.9
20210726040802 68 221 0.0 4.0 0.00 0.00 0.00 86 1013.0
20210726040238 68 207 0.0 0.0 0.00 0.00 0.00 86 1012.9
20210726035723 68 207 0.0 0.0 0.00 0.00 0.00 86 1012.7
20210726035203 68 207 1.0 4.0 0.00 0.00 0.00 85 1012.8
20210726034649 68 207 2.0 4.0 0.00 0.00 0.00 85 1012.7
20210726034129 68 207 1.0 4.0 0.00 0.00 0.00 85 1012.7
20210726033614 68 194 1.0 3.0 0.00 0.00 0.00 85 1012.8
20210726033055 68 194 0.0 3.0 0.00 0.00 0.00 85 1012.8
20210726032539 68 194 0.0 0.0 0.00 0.00 0.00 85 1012.8
20210726032022 68 258 0.0 4.0 0.00 0.00 0.00 85 1012.6
20210726031503 68 229 1.0 4.0 0.00 0.00 0.00 85 1012.5
20210726030948 68 230 1.0 4.0 0.00 0.00 0.00 85 1012.5
20210726030430 68 205 1.0 4.0 0.00 0.00 0.00 85 1012.6
20210726025912 69 280 1.0 5.0 0.00 0.00 0.00 85 1012.6
20210726025356 69 260 1.0 5.0 0.00 0.00 0.00 84 1012.6
20210726024839 69 213 1.0 4.0 0.00 0.00 0.00 84 1012.7